Monroe, NC

1:13 AM EST on February 27, 2017 (GMT -0500)
Monroe

Weather History for KEQY - April, 2014

Change the Weather History Date:

Thursday, April 17, 2014

  Actual Average (KCLT) Record (KCLT)
Temperature  
Mean Temperature 48 °F -  
Max Temperature 63 °F 72 °F 94 °F (1896)
Min Temperature 34 °F 48 °F 30 °F (1949)
Degree Days  
Heating Degree Days 16    
Moisture  
Dew Point 29 °F    
Average Humidity 51    
Maximum Humidity 82    
Minimum Humidity 24    
Precipitation  
Precipitation 0.00 in - - ()
Sea Level Pressure  
Sea Level Pressure 30.49 in    
Wind  
Wind Speed 7 mph (NE)    
Max Wind Speed 15 mph    
Max Gust Speed 18 mph    
Visibility 10 miles    
Events      
Averages and records for this station are not official NWS values.
T = Trace of Precipitation, MM = Missing Value Source: NWS Daily Summary

Daily Weather History Graph

Daily Weather History Graph

Search for Another Location

Airport or City:

Trip Planner

Search our weather history database for the weather conditions in past years. The results will help you decide how hot, cold, wet, or windy it might be!

Date:

Astronomy

Apr. 17, 2014 Rise Set
Actual Time 6:47 AM EDT 7:56 PM EDT
Civil Twilight 6:21 AM EDT 8:22 PM EDT
Nautical Twilight 5:50 AM EDT 8:54 PM EDT
Astronomical Twilight 5:18 AM EDT 9:26 PM EDT
Moon 10:36 PM EDT (4/17) 8:22 AM EDT (4/17)
Length of Visible Light 14h 01m
Length of Day
13h 08m
Waning Gibbous, 94% of the Moon is Illuminated
Apr 17
Waning Gibbous
Apr 22
Last Quarter
Apr 29
New
May 6
First Quarter
May 14
Full

Hourly Weather History & Observations

Time (EDT) Temp. Windchill Dew Point Humidity Pressure Visibility Wind Dir Wind Speed Gust Speed Precip Events Conditions
12:53 AM 41.0 °F 37.1 °F 30.0 °F 65% 30.47 in 10.0 mi ENE 5.8 mph - N/A   Clear
1:53 AM 39.9 °F 35.8 °F 30.0 °F 68% 30.47 in 10.0 mi NE 5.8 mph - N/A   Clear
2:53 AM 39.0 °F 34.8 °F 30.0 °F 70% 30.48 in 10.0 mi NE 5.8 mph - N/A   Clear
3:53 AM 39.0 °F 34.8 °F 28.9 °F 67% 30.49 in 10.0 mi ENE 5.8 mph - N/A   Clear
4:53 AM 36.0 °F 30.3 °F 28.9 °F 76% 30.50 in 10.0 mi NE 6.9 mph - N/A   Clear
5:53 AM 35.1 °F 29.3 °F 28.9 °F 78% 30.51 in 10.0 mi NE 6.9 mph - N/A   Clear
6:53 AM 34.0 °F 27.2 °F 28.9 °F 82% 30.52 in 10.0 mi NE 8.1 mph - N/A   Clear
7:53 AM 37.0 °F 30.4 °F 30.0 °F 76% 30.55 in 10.0 mi NE 9.2 mph - N/A   Clear
8:53 AM 42.1 °F 34.5 °F 30.0 °F 62% 30.55 in 10.0 mi NE 15.0 mph - N/A   Clear
9:53 AM 45.0 °F 38.5 °F 28.0 °F 52% 30.57 in 10.0 mi NE 13.8 mph - N/A   Clear
10:53 AM 48.9 °F - 28.0 °F 44% 30.57 in 10.0 mi NE 15.0 mph 18.4 mph N/A   Clear
11:53 AM 51.1 °F - 26.1 °F 38% 30.56 in 10.0 mi NE 8.1 mph - N/A   Clear
1:53 PM 57.0 °F - 25.0 °F 29% 30.51 in 10.0 mi Variable 6.9 mph - N/A   Clear
2:53 PM 60.1 °F - 25.0 °F 26% 30.49 in 10.0 mi NE 8.1 mph - N/A   Clear
3:53 PM 62.1 °F - 26.1 °F 25% 30.47 in 10.0 mi North 9.2 mph - N/A   Clear
4:53 PM 63.0 °F - 25.0 °F 24% 30.44 in 10.0 mi Variable 6.9 mph - N/A   Clear
5:53 PM 63.0 °F - 28.0 °F 27% 30.42 in 10.0 mi NE 8.1 mph - N/A   Clear
6:53 PM 62.1 °F - 30.0 °F 30% 30.44 in 10.0 mi NE 5.8 mph - N/A   Clear
7:53 PM 57.9 °F - 32.0 °F 37% 30.43 in 10.0 mi ENE 4.6 mph - N/A   Clear
8:53 PM 55.9 °F - 33.1 °F 42% 30.44 in 10.0 mi NE 3.5 mph - N/A   Clear
9:53 PM 53.1 °F - 35.1 °F 50% 30.46 in 10.0 mi NE 3.5 mph - N/A   Clear
10:53 PM 50.0 °F - 36.0 °F 59% 30.45 in 10.0 mi NE 5.8 mph - N/A   Clear
11:53 PM 51.1 °F - 34.0 °F 52% 30.45 in 10.0 mi NE 4.6 mph - N/A   Clear